Simultaneous Nadir Overpasses (SNOs) Predictions

Prediction of SNOs between METOP-B and NOAA-19 Satellite Orbit:

Table of predicted SNOs for the next 14.0 days since TLE Epoch: 2/22/2025
Index Date (METOP-B) Time (METOP-B) Lat,Lon (METOP-B) SZA (METOP-B ) Date (NOAA-19) Time (NOAA-19) Lat,Lon (NOAA-19) SZA (NOAA-19 ) Distance(km) Time Diff (sec)
1 02/27/2025 08:23:30 80.64, 126.34 94.75 02/27/2025 08:22:20 80.64, 126.30 94.70 0.81 70
2 02/27/2025 09:14:10 -80.62, -66.06 85.24 02/27/2025 09:13:19 -80.61, -65.92 85.25 2.53 51
3 02/27/2025 10:04:51 80.62, 101.28 94.76 02/27/2025 10:04:15 80.61, 101.45 94.76 3.21 36
4 02/27/2025 10:55:31 -80.60, -91.13 85.23 02/27/2025 10:55:15 -80.60, -91.13 85.24 0.18 16
5 02/27/2025 11:46:12 80.60, 76.21 94.77 02/27/2025 11:46:11 80.59, 76.24 94.77 0.68 1
6 02/27/2025 12:36:51 -80.58,-116.20 85.22 02/27/2025 12:37:10 -80.58,-116.34 85.23 2.76 19
7 02/27/2025 13:27:32 80.58, 51.14 94.77 02/27/2025 13:28:06 80.58, 51.03 94.78 1.94 34
8 02/27/2025 14:18:12 -80.56,-141.27 85.21 02/27/2025 14:19:05 -80.55,-141.21 85.17 1.19 53



Historial Predications of SNOs between METOP-B and NOAA-19
